Time,TemperatureF,DewpointF,PressureIn,WindDirection,WindDirectionDegrees,WindSpeedMPH,WindSpeedGustMPH,Humidity,HourlyPrecipIn,Conditions,Clouds,dailyrainin,SoftwareType,DateUTC
2013-02-23 00:00:00,35.9,35.4,30.11,SE,124,0.0,0.0,98,0.00,,,0.00,Wunderground v.1.15,2013-02-23 05:00:00,
2013-02-23 00:10:00,35.9,35.4,30.11,SE,143,0.0,0.0,98,0.00,,,0.00,Wunderground v.1.15,2013-02-23 05:10:00,
2013-02-23 00:15:00,35.9,35.4,30.11,SE,124,0.0,0.0,98,0.00,,,0.00,Wunderground v.1.15,2013-02-23 05:15:00,
2013-02-23 00:20:00,35.9,35.4,30.10,SE,124,0.0,0.0,98,0.00,,,0.00,Wunderground v.1.15,2013-02-23 05:20:00,
2013-02-23 00:30:00,35.9,35.4,30.11,SE,124,0.0,0.0,98,0.00,,,0.00,Wunderground v.1.15,2013-02-23 05:30:00,
2013-02-23 00:35:00,35.9,35.4,30.10,SE,124,0.0,0.0,98,0.00,,,0.00,Wunderground v.1.15,2013-02-23 05:35:00,
2013-02-23 07:30:00,37.1,36.8,29.99,SSE,152,0.0,0.0,99,0.07,,,0.38,Wunderground v.1.15,2013-02-23 12:30:00,
2013-02-23 07:35:00,37.1,36.8,29.99,SSE,153,0.0,0.0,99,0.29,,,0.40,Wunderground v.1.15,2013-02-23 12:35:00,
2013-02-23 07:40:00,37.1,36.8,29.99,SSE,152,0.0,0.0,99,0.12,,,0.41,Wunderground v.1.15,2013-02-23 12:40:00,
2013-02-23 07:50:00,37.1,36.8,29.97,SE,139,0.0,0.0,99,0.17,,,0.43,Wunderground v.1.15,2013-02-23 12:50:00,
2013-02-23 07:55:00,37.1,36.8,29.96,ESE,121,0.0,0.0,99,0.13,,,0.44,Wunderground v.1.15,2013-02-23 12:55:00,
2013-02-23 08:00:00,37.2,36.9,29.96,East,92,0.0,0.0,99,0.11,,,0.45,Wunderground v.1.15,2013-02-23 13:00:00,
2013-02-23 08:10:00,37.3,37.0,29.97,South,186,0.0,0.0,99,0.12,,,0.46,Wunderground v.1.15,2013-02-23 13:10:00,
2013-02-23 08:15:00,37.4,37.1,29.98,South,177,0.0,0.0,99,0.11,,,0.47,Wunderground v.1.15,2013-02-23 13:15:00,
2013-02-23 08:25:00,37.5,37.2,29.98,South,177,0.0,0.0,99,0.07,,,0.49,Wunderground v.1.15,2013-02-23 13:25:00,
2013-02-23 08:30:00,37.6,37.3,29.98,ESE,106,0.0,0.0,99,0.11,,,0.50,Wunderground v.1.15,2013-02-23 13:30:00,
2013-02-23 08:40:00,37.6,37.3,29.98,SE,129,0.0,0.0,99,0.13,,,0.52,Wunderground v.1.15,2013-02-23 13:40:00,
2013-02-23 08:45:00,37.6,37.3,29.98,SE,129,0.0,0.0,99,0.20,,,0.53,Wunderground v.1.15,2013-02-23 13:45:00,
2013-02-23 08:50:00,37.6,37.3,29.99,SE,128,0.0,0.0,99,0.21,,,0.55,Wunderground v.1.15,2013-02-23 13:50:00,
2013-02-23 09:00:00,37.8,37.5,30.00,SE,129,0.0,0.0,99,0.19,,,0.58,Wunderground v.1.15,2013-02-23 14:00:00,
2013-02-23 09:05:00,37.9,37.6,30.00,SSE,163,0.0,0.0,99,0.15,,,0.59,Wunderground v.1.15,2013-02-23 14:05:00,
2013-02-23 09:15:00,38.0,37.7,29.98,SSE,157,0.0,0.0,99,0.17,,,0.62,Wunderground v.1.15,2013-02-23 14:15:00,
2013-02-23 09:20:00,38.0,37.7,29.97,SSE,156,0.0,0.0,99,0.15,,,0.63,Wunderground v.1.15,2013-02-23 14:20:00,
2013-02-23 09:25:00,38.1,37.8,29.99,South,183,0.0,0.0,99,0.13,,,0.64,Wunderground v.1.15,2013-02-23 14:25:00,
2013-02-23 09:30:00,38.1,37.8,29.99,South,181,0.0,0.0,99,0.11,,,0.65,Wunderground v.1.15,2013-02-23 14:30:00,
2013-02-23 09:40:00,38.0,37.7,29.98,SE,128,0.0,0.0,99,0.05,,,0.65,Wunderground v.1.15,2013-02-23 14:40:00,
2013-02-23 09:45:00,37.9,37.6,29.98,SE,129,0.0,0.0,99,0.00,,,0.65,Wunderground v.1.15,2013-02-23 14:45:00,
2013-02-23 09:55:00,38.0,37.7,29.96,SE,129,0.0,0.0,99,0.00,,,0.65,Wunderground v.1.15,2013-02-23 14:55:00,
2013-02-23 10:00:00,38.1,37.8,29.98,SW,228,0.0,0.0,99,0.00,,,0.66,Wunderground v.1.15,2013-02-23 15:00:00,
2013-02-23 10:10:00,38.1,37.8,29.96,SE,143,0.0,0.0,99,0.10,,,0.68,Wunderground v.1.15,2013-02-23 15:10:00,
2013-02-23 10:15:00,38.1,37.8,29.96,SE,143,0.0,0.0,99,0.07,,,0.69,Wunderground v.1.15,2013-02-23 15:15:00,
2013-02-23 10:20:00,38.2,37.9,29.96,SE,143,0.0,0.0,99,0.07,,,0.69,Wunderground v.1.15,2013-02-23 15:20:00,
2013-02-23 10:30:00,38.5,38.2,29.96,SE,143,0.0,0.0,99,0.00,,,0.69,Wunderground v.1.15,2013-02-23 15:30:00,
2013-02-23 10:35:00,38.6,38.3,29.96,SE,124,0.0,1.0,99,0.00,,,0.70,Wunderground v.1.15,2013-02-23 15:35:00,
2013-02-23 10:45:00,38.5,38.2,29.97,South,171,0.0,0.0,99,0.00,,,0.70,Wunderground v.1.15,2013-02-23 15:45:00,
2013-02-23 10:50:00,38.5,38.2,29.97,South,170,0.0,0.0,99,0.00,,,0.70,Wunderground v.1.15,2013-02-23 15:50:00,
2013-02-23 10:55:00,38.7,38.4,29.96,South,170,0.0,0.0,99,0.00,,,0.71,Wunderground v.1.15,2013-02-23 15:55:00,
2013-02-23 11:00:00,38.7,38.4,29.97,SSW,205,0.0,0.0,99,0.10,,,0.72,Wunderground v.1.15,2013-02-23 16:00:00,
2013-02-23 11:10:00,38.8,38.5,29.96,South,181,0.0,0.0,99,0.09,,,0.73,Wunderground v.1.15,2013-02-23 16:10:00,
2013-02-23 11:15:00,38.9,38.6,29.95,South,181,0.0,0.0,99,0.08,,,0.74,Wunderground v.1.15,2013-02-23 16:15:00,
2013-02-23 11:25:00,39.3,39.0,29.96,SSW,194,0.0,1.0,99,0.06,,,0.74,Wunderground v.1.15,2013-02-23 16:25:00,
2013-02-23 11:30:00,39.2,38.9,29.95,SE,129,0.0,0.0,99,0.05,,,0.75,Wunderground v.1.15,2013-02-23 16:30:00,
2013-02-23 11:40:00,39.3,39.0,29.95,SE,131,0.0,0.0,99,0.05,,,0.76,Wunderground v.1.15,2013-02-23 16:40:00,
2013-02-23 11:45:00,39.5,39.2,29.94,SE,131,0.0,0.0,99,0.05,,,0.76,Wunderground v.1.15,2013-02-23 16:45:00,
2013-02-23 11:55:00,39.6,39.3,29.94,South,181,0.0,0.0,99,0.04,,,0.76,Wunderground v.1.15,2013-02-23 16:55:00,
2013-02-23 12:00:00,39.8,39.5,29.94,South,181,0.0,0.0,99,0.00,,,0.76,Wunderground v.1.15,2013-02-23 17:00:00,
2013-02-23 12:05:00,40.0,39.7,29.94,South,183,0.0,0.0,99,0.00,,,0.77,Wunderground v.1.15,2013-02-23 17:05:00,
2013-02-23 12:10:00,40.0,39.7,29.93,South,183,0.0,0.0,99,0.00,,,0.77,Wunderground v.1.15,2013-02-23 17:10:00,
2013-02-23 12:20:00,40.4,40.1,29.94,SSW,198,0.0,0.0,99,0.00,,,0.77,Wunderground v.1.15,2013-02-23 17:20:00,
2013-02-23 12:25:00,40.4,40.1,29.93,South,177,0.0,0.0,99,0.00,,,0.78,Wunderground v.1.15,2013-02-23 17:25:00,
2013-02-23 12:30:00,40.4,40.1,29.93,South,177,0.0,0.0,99,0.00,,,0.78,Wunderground v.1.15,2013-02-23 17:30:00,
2013-02-23 12:40:00,40.5,40.0,29.92,SE,129,0.0,0.0,98,0.00,,,0.78,Wunderground v.1.15,2013-02-23 17:40:00,
2013-02-23 12:45:00,40.6,40.1,29.92,SE,129,0.0,0.0,98,0.00,,,0.78,Wunderground v.1.15,2013-02-23 17:45:00,
2013-02-23 12:55:00,40.8,40.3,29.92,SSE,153,0.0,0.0,98,0.00,,,0.79,Wunderground v.1.15,2013-02-23 17:55:00,
2013-02-23 13:00:00,40.9,40.4,29.93,SSE,153,0.0,0.0,98,0.00,,,0.79,Wunderground v.1.15,2013-02-23 18:00:00,
2013-02-23 13:10:00,40.9,40.4,29.92,SSE,167,0.0,0.0,98,0.00,,,0.79,Wunderground v.1.15,2013-02-23 18:10:00,
2013-02-23 13:20:00,40.8,40.3,29.93,South,180,1.0,1.0,98,0.00,,,0.79,Wunderground v.1.15,2013-02-23 18:20:00,
2013-02-23 13:30:00,40.8,40.3,29.92,SSE,158,0.0,0.0,98,0.00,,,0.79,Wunderground v.1.15,2013-02-23 18:30:00,
2013-02-23 13:35:00,40.8,40.3,29.92,SSW,210,0.0,0.0,98,0.00,,,0.79,Wunderground v.1.15,2013-02-23 18:35:00,
2013-02-23 13:40:00,40.7,40.2,29.92,SE,129,0.0,0.0,98,0.00,,,0.79,Wunderground v.1.15,2013-02-23 18:40:00,
2013-02-23 13:50:00,40.8,40.3,29.91,SE,145,0.0,0.0,98,0.00,,,0.79,Wunderground v.1.15,2013-02-23 18:50:00,
2013-02-23 13:55:00,40.8,40.3,29.91,SE,146,0.0,0.0,98,0.00,,,0.79,Wunderground v.1.15,2013-02-23 18:55:00,
2013-02-23 14:00:00,40.9,40.4,29.92,ESE,103,0.0,1.0,98,0.00,,,0.79,Wunderground v.1.15,2013-02-23 19:00:00,
2013-02-23 14:10:00,40.7,40.2,29.91,ESE,103,0.0,0.0,98,0.00,,,0.79,Wunderground v.1.15,2013-02-23 19:10:00,
2013-02-23 14:15:00,40.8,40.3,29.91,ESE,103,0.0,0.0,98,0.00,,,0.79,Wunderground v.1.15,2013-02-23 19:15:00,
2013-02-23 14:25:00,41.0,40.5,29.92,SSE,162,0.0,0.0,98,0.00,,,0.79,Wunderground v.1.15,2013-02-23 19:25:00,
2013-02-23 14:30:00,41.0,40.5,29.91,SSE,163,0.0,0.0,98,0.00,,,0.79,Wunderground v.1.15,2013-02-23 19:30:00,
2013-02-23 14:35:00,41.1,40.6,29.91,SSE,163,0.0,0.0,98,0.00,,,0.79,Wunderground v.1.15,2013-02-23 19:35:00,
2013-02-23 14:45:00,41.3,40.8,29.89,SSE,163,0.0,0.0,98,0.00,,,0.79,Wunderground v.1.15,2013-02-23 19:45:00,
2013-02-23 14:50:00,41.4,40.9,29.89,SSE,164,0.0,0.0,98,0.00,,,0.79,Wunderground v.1.15,2013-02-23 19:50:00,
2013-02-23 14:55:00,41.4,40.9,29.88,South,186,0.0,0.0,98,0.00,,,0.79,Wunderground v.1.15,2013-02-23 19:55:00,
2013-02-23 15:05:00,41.6,41.1,29.88,South,186,0.0,0.0,98,0.00,,,0.79,Wunderground v.1.15,2013-02-23 20:05:00,
2013-02-23 15:10:00,41.7,41.2,29.87,South,186,0.0,0.0,98,0.00,,,0.79,Wunderground v.1.15,2013-02-23 20:10:00,
2013-02-23 15:15:00,41.9,41.4,29.88,SE,145,0.0,0.0,98,0.00,,,0.79,Wunderground v.1.15,2013-02-23 20:15:00,
2013-02-23 15:25:00,42.1,41.6,29.87,SE,145,0.0,0.0,98,0.00,,,0.79,Wunderground v.1.15,2013-02-23 20:25:00,
2013-02-23 15:30:00,42.2,41.7,29.87,SE,145,0.0,0.0,98,0.00,,,0.79,Wunderground v.1.15,2013-02-23 20:30:00,
2013-02-23 15:40:00,42.2,41.7,29.86,SE,145,0.0,0.0,98,0.00,,,0.79,Wunderground v.1.15,2013-02-23 20:40:00,
2013-02-23 15:45:00,42.3,41.8,29.86,SE,142,0.0,0.0,98,0.00,,,0.79,Wunderground v.1.15,2013-02-23 20:45:00,
2013-02-23 15:50:00,42.4,41.9,29.86,SE,142,0.0,0.0,98,0.00,,,0.79,Wunderground v.1.15,2013-02-23 20:50:00,
2013-02-23 16:00:00,42.5,42.0,29.88,South,189,0.0,0.0,98,0.00,,,0.79,Wunderground v.1.15,2013-02-23 21:00:00,
2013-02-23 16:05:00,42.5,42.0,29.88,South,177,0.0,0.0,98,0.00,,,0.79,Wunderground v.1.15,2013-02-23 21:05:00,
2013-02-23 16:10:00,42.5,42.0,29.88,SE,146,0.0,0.0,98,0.00,,,0.79,Wunderground v.1.15,2013-02-23 21:10:00,
2013-02-23 16:20:00,42.4,41.9,29.88,SSW,207,0.0,0.0,98,0.00,,,0.79,Wunderground v.1.15,2013-02-23 21:20:00,
2013-02-23 16:25:00,42.4,41.9,29.87,South,169,0.0,0.0,98,0.00,,,0.79,Wunderground v.1.15,2013-02-23 21:25:00,
2013-02-23 16:30:00,42.4,41.9,29.88,SE,135,0.0,0.0,98,0.00,,,0.79,Wunderground v.1.15,2013-02-23 21:30:00,
2013-02-23 16:40:00,42.3,41.8,29.88,ESE,115,0.0,0.0,98,0.00,,,0.79,Wunderground v.1.15,2013-02-23 21:40:00,
2013-02-23 16:45:00,42.3,41.8,29.88,ESE,116,0.0,0.0,98,0.00,,,0.79,Wunderground v.1.15,2013-02-23 21:45:00,
2013-02-23 16:55:00,42.3,41.8,29.87,South,181,0.0,1.0,98,0.00,,,0.79,Wunderground v.1.15,2013-02-23 21:55:00,
2013-02-23 17:00:00,42.3,41.8,29.88,South,187,0.0,0.0,98,0.00,,,0.79,Wunderground v.1.15,2013-02-23 22:00:00,
2013-02-23 17:10:00,42.3,41.8,29.88,South,188,0.0,0.0,98,0.00,,,0.79,Wunderground v.1.15,2013-02-23 22:10:00,
2013-02-23 17:15:00,42.4,41.9,29.88,South,187,0.0,0.0,98,0.00,,,0.79,Wunderground v.1.15,2013-02-23 22:15:00,
2013-02-23 17:20:00,42.4,41.9,29.88,South,173,0.0,0.0,98,0.00,,,0.79,Wunderground v.1.15,2013-02-23 22:20:00,
2013-02-23 17:30:00,42.4,41.9,29.86,SE,137,0.0,0.0,98,0.00,,,0.79,Wunderground v.1.15,2013-02-23 22:30:00,
2013-02-23 17:35:00,42.5,42.0,29.87,SSE,149,0.0,0.0,98,0.00,,,0.79,Wunderground v.1.15,2013-02-23 22:35:00,
2013-02-23 17:40:00,42.4,41.9,29.86,SSE,149,0.0,0.0,98,0.00,,,0.79,Wunderground v.1.15,2013-02-23 22:40:00,
2013-02-23 17:45:00,42.4,41.9,29.85,SSE,149,0.0,0.0,98,0.00,,,0.79,Wunderground v.1.15,2013-02-23 22:45:00,
2013-02-23 17:55:00,42.4,41.9,29.85,SSE,149,0.0,0.0,98,0.00,,,0.79,Wunderground v.1.15,2013-02-23 22:55:00,
2013-02-23 18:00:00,42.4,41.9,29.84,SSE,149,0.0,0.0,98,0.00,,,0.79,Wunderground v.1.15,2013-02-23 23:00:00,
2013-02-23 18:10:00,42.4,41.9,29.83,SSE,149,0.0,0.0,98,0.00,,,0.79,Wunderground v.1.15,2013-02-23 23:10:00,
2013-02-23 18:20:00,42.5,42.0,29.83,SSE,149,0.0,0.0,98,0.00,,,0.79,Wunderground v.1.15,2013-02-23 23:20:00,
2013-02-23 18:25:00,42.4,41.9,29.84,SSE,149,0.0,0.0,98,0.00,,,0.79,Wunderground v.1.15,2013-02-23 23:25:00,
2013-02-23 18:30:00,42.4,41.9,29.84,SSE,149,0.0,0.0,98,0.00,,,0.79,Wunderground v.1.15,2013-02-23 23:30:00,
2013-02-23 18:40:00,42.4,41.9,29.84,SSE,153,0.0,0.0,98,0.00,,,0.79,Wunderground v.1.15,2013-02-23 23:40:00,
2013-02-23 18:45:00,42.4,41.9,29.84,South,173,0.0,0.0,98,0.00,,,0.79,Wunderground v.1.15,2013-02-23 23:45:00,
2013-02-23 18:50:00,42.4,41.9,29.84,South,173,0.0,0.0,98,0.00,,,0.79,Wunderground v.1.15,2013-02-23 23:50:00,
2013-02-23 18:55:00,42.4,41.9,29.83,South,173,0.0,0.0,98,0.00,,,0.79,Wunderground v.1.15,2013-02-23 23:55:00,
2013-02-23 19:05:00,42.4,41.9,29.83,SSE,153,0.0,0.0,98,0.00,,,0.79,Wunderground v.1.15,2013-02-24 00:05:00,
2013-02-23 19:10:00,42.4,41.9,29.83,SSE,153,0.0,0.0,98,0.00,,,0.79,Wunderground v.1.15,2013-02-24 00:10:00,
2013-02-23 19:20:00,42.4,41.9,29.84,SSE,155,0.0,0.0,98,0.00,,,0.79,Wunderground v.1.15,2013-02-24 00:20:00,
2013-02-23 19:25:00,42.5,42.0,29.85,SSE,157,0.0,0.0,98,0.00,,,0.79,Wunderground v.1.15,2013-02-24 00:25:00,
2013-02-23 19:30:00,42.4,41.9,29.84,SSE,156,0.0,0.0,98,0.00,,,0.79,Wunderground v.1.15,2013-02-24 00:30:00,
2013-02-23 19:40:00,42.5,42.0,29.84,SSE,156,0.0,0.0,98,0.00,,,0.79,Wunderground v.1.15,2013-02-24 00:40:00,
2013-02-23 19:45:00,42.4,41.9,29.84,SSE,157,0.0,0.0,98,0.00,,,0.79,Wunderground v.1.15,2013-02-24 00:45:00,
2013-02-23 19:55:00,42.5,42.0,29.85,SSE,157,0.0,0.0,98,0.00,,,0.79,Wunderground v.1.15,2013-02-24 00:55:00,
2013-02-23 20:00:00,42.5,42.0,29.86,SSE,156,0.0,0.0,98,0.00,,,0.79,Wunderground v.1.15,2013-02-24 01:00:00,
2013-02-23 20:10:00,42.5,42.0,29.85,SSE,158,0.0,0.0,98,0.00,,,0.79,Wunderground v.1.15,2013-02-24 01:10:00,
2013-02-23 20:15:00,42.6,42.1,29.86,SSE,158,0.0,0.0,98,0.00,,,0.79,Wunderground v.1.15,2013-02-24 01:15:00,
2013-02-23 20:20:00,42.6,42.1,29.85,SSE,158,0.0,0.0,98,0.00,,,0.79,Wunderground v.1.15,2013-02-24 01:20:00,
2013-02-23 20:25:00,42.6,42.1,29.85,SSE,158,0.0,0.0,98,0.00,,,0.79,Wunderground v.1.15,2013-02-24 01:25:00,
2013-02-23 20:35:00,42.7,42.2,29.86,SSE,158,0.0,0.0,98,0.00,,,0.79,Wunderground v.1.15,2013-02-24 01:35:00,
2013-02-23 20:40:00,42.7,42.2,29.85,SSE,158,0.0,0.0,98,0.00,,,0.79,Wunderground v.1.15,2013-02-24 01:40:00,
2013-02-23 20:45:00,42.7,42.2,29.85,SSE,158,0.0,0.0,98,0.00,,,0.79,Wunderground v.1.15,2013-02-24 01:45:00,
2013-02-23 20:55:00,42.7,42.4,29.86,SSE,158,0.0,0.0,99,0.00,,,0.79,Wunderground v.1.15,2013-02-24 01:55:00,
2013-02-23 21:00:00,42.7,42.4,29.85,SSE,158,0.0,0.0,99,0.00,,,0.79,Wunderground v.1.15,2013-02-24 02:00:00,
2013-02-23 21:10:00,42.7,42.4,29.85,SSE,158,0.0,0.0,99,0.00,,,0.79,Wunderground v.1.15,2013-02-24 02:10:00,
2013-02-23 21:15:00,42.7,42.4,29.86,SSE,158,0.0,0.0,99,0.00,,,0.79,Wunderground v.1.15,2013-02-24 02:15:00,
2013-02-23 21:25:00,42.7,42.4,29.86,SSE,158,0.0,0.0,99,0.00,,,0.79,Wunderground v.1.15,2013-02-24 02:25:00,
2013-02-23 21:30:00,42.8,42.5,29.85,SSE,156,0.0,0.0,99,0.00,,,0.79,Wunderground v.1.15,2013-02-24 02:30:00,
2013-02-23 21:40:00,42.8,42.5,29.85,SSE,158,0.0,0.0,99,0.00,,,0.79,Wunderground v.1.15,2013-02-24 02:40:00,
2013-02-23 21:45:00,42.8,42.5,29.84,SSE,156,0.0,0.0,99,0.00,,,0.79,Wunderground v.1.15,2013-02-24 02:45:00,
2013-02-23 21:55:00,42.8,42.5,29.85,SSE,158,0.0,0.0,99,0.00,,,0.79,Wunderground v.1.15,2013-02-24 02:55:00,
2013-02-23 22:00:00,42.8,42.5,29.84,SSE,158,0.0,0.0,99,0.00,,,0.79,Wunderground v.1.15,2013-02-24 03:00:00,
2013-02-23 22:10:00,42.8,42.5,29.84,SSE,158,0.0,0.0,99,0.00,,,0.79,Wunderground v.1.15,2013-02-24 03:10:00,
2013-02-23 22:20:00,42.8,42.5,29.84,SSE,158,0.0,0.0,99,0.00,,,0.79,Wunderground v.1.15,2013-02-24 03:20:00,
2013-02-23 22:25:00,42.8,42.5,29.84,SSE,158,0.0,0.0,99,0.00,,,0.79,Wunderground v.1.15,2013-02-24 03:25:00,
2013-02-23 22:35:00,42.8,42.5,29.82,SSE,158,0.0,0.0,99,0.00,,,0.79,Wunderground v.1.15,2013-02-24 03:35:00,
2013-02-23 22:40:00,42.8,42.5,29.82,SSE,158,0.0,0.0,99,0.00,,,0.79,Wunderground v.1.15,2013-02-24 03:40:00,
2013-02-23 22:45:00,42.8,42.5,29.82,SSE,158,0.0,0.0,99,0.00,,,0.79,Wunderground v.1.15,2013-02-24 03:45:00,
2013-02-23 22:55:00,42.8,42.5,29.81,SSE,158,0.0,0.0,99,0.00,,,0.79,Wunderground v.1.15,2013-02-24 03:55:00,
2013-02-23 23:00:00,42.8,42.5,29.81,SSE,158,0.0,0.0,99,0.00,,,0.79,Wunderground v.1.15,2013-02-24 04:00:00,
2013-02-23 23:10:00,42.8,42.5,29.82,SSE,158,0.0,0.0,99,0.00,,,0.79,Wunderground v.1.15,2013-02-24 04:10:00,
2013-02-23 23:15:00,42.7,42.4,29.82,SSE,158,0.0,0.0,99,0.00,,,0.79,Wunderground v.1.15,2013-02-24 04:15:00,
2013-02-23 23:20:00,42.8,42.5,29.82,SSE,158,0.0,0.0,99,0.00,,,0.79,Wunderground v.1.15,2013-02-24 04:20:00,